Location: Centerville
(32.8776°N, 96.6203°W)
Time: 04:07:24
(UTC+00:00)

Cosmos 1633 - Pass Details

Date: 17 June 2021
Orbit: 461 x 476 km, 82.5° (Epoch: 29 July)

Event Time Altitude Azimuth Distance (km) Brightness Sun altitude
Exits shadow 08:36:50 29° 352° (N) 867 4.2 -25.8°
Drops below altitude 10° 08:38:43 10° 1° (N) 1,613 5.9 -25.6°
Sets 08:40:49 0° 4° (N) 2,493 7.1 -25.4°
